This demonstration page uses our WeatherBlox Daily Observations layout. Learn more.

Left ArrowRight Arrow

Hourly Observations for January 26, 2015

Temp ( °F °C ) Dew Point ( °F °C ) Humidity (%) Winds ( mph kmh ) Pressure ( in mb ) Visibility ( mi km ) Precip ( " mm )
12:51 am 00:51 Clear 48 8.9 25 -3.9 41 41 SSE 7 11 30.18 1022 10 16 0.00 0.00
1:51 am 01:51 Clear 49 9.4 24 -4.4 38 38 ESE 13 20 30.17 1022 10 16 0.00 0.00
2:51 am 02:51 Clear 50 10 23 -5 35 35 E 13 20 30.16 1022 10 16 0.00 0.00
3:51 am 03:51 Clear 48 8.9 23 -5 37 37 SE 10 17 30.15 1021 10 16 0.00 0.00
4:51 am 04:51 Clear 47 8.3 23 -5 39 39 ESE 15 24 30.15 1021 10 16 0.00 0.00
5:51 am 05:51 Clear 47 8.3 22 -5.6 37 37 ESE 18 30 30.18 1022 10 16 0.00 0.00
6:51 am 06:51 Clear 47 8.3 23 -5 39 39 ESE 14 22 30.20 1023 10 16 0.00 0.00
7:51 am 07:51 Sunny 46 7.8 23 -5 40 40 SE 13 20 30.22 1023 10 16 0.00 0.00
8:51 am 08:51 Sunny 49 9.4 25 -3.9 39 39 ESE 9 15 30.25 1024 10 16 0.00 0.00
9:51 am 09:51 Sunny 53 11.7 24 -4.4 32 32 ESE 9 15 30.24 1024 10 16 0.00 0.00
10:51 am 10:51 Sunny 60 15.6 23 -5 24 24 ESE 14 22 30.24 1024 10 16 0.00 0.00
11:51 am 11:51 Sunny 62 16.7 24 -4.4 23 23 SE 10 17 30.19 1023 10 16 0.00 0.00
12:51 pm 12:51 Sunny 62 16.7 24 -4.4 23 23 SSE 9 15 30.16 1021 10 16 0.00 0.00
1:51 pm 13:51 Sunny 62 16.7 24 -4.4 23 23 S 12 19 30.13 1020 10 16 0.00 0.00
2:51 pm 14:51 Sunny 62 16.7 24 -4.4 23 23 S 9 15 30.12 1020 10 16 0.00 0.00
3:51 pm 15:51 Sunny 64 17.8 24 -4.4 22 22 SSE 7 11 30.11 1020 10 16 0.00 0.00
4:51 pm 16:51 Sunny 63 17.2 25 -3.9 24 24 S 6 9 30.11 1020 10 16 0.00 0.00
5:51 pm 17:51 Clear 59 15 27 -2.8 29 29 SSE 6 9 30.11 1020 10 16 0.00 0.00
6:51 pm 18:51 Clear 57 13.9 26 -3.3 30 30 ESE 6 9 30.13 1020 10 16 0.00 0.00
7:51 pm 19:51 Clear 59 15 26 -3.3 28 28 SE 8 13 30.14 1021 10 16 0.00 0.00
8:51 pm 20:51 Clear 55 12.8 26 -3.3 33 33 SSE 9 15 30.16 1021 10 16 0.00 0.00
9:51 pm 21:51 Partly Cloudy 55 12.8 26 -3.3 33 33 ESE 6 9 30.17 1022 10 16 0.00 0.00
10:51 pm 22:51 Cloudy with Light Rain 53 11.7 36 2.2 52 52 ESE 6 9 30.19 1022 10 16 0.00 0.03
11:51 pm 23:51 Cloudy 53 11.7 35 1.7 51 51 E 6 9 30.19 1022 10 16 0.00 0.03

Powered by AerisWeather